Regional Weather Roundup
Issued by NWS Cleveland, OH

Home | Current Version | Previous Version | Graphics & Text | Print | Product List | Glossary Off
Versions: 1 2 3 4 5 6 7 8 9 10 11 12 13 14 15 16 17 18 19 20 21 22 23 24 25 26 27 28 29 30 31 32 33 34 35 36 37 38 39 40 41 42 43 44 45 46 47 48 49 50

000
ASUS41 KCLE 161812
RWRCLE
OHIO REGIONAL WEATHER ROUNDUP
NATIONAL WEATHER SERVICE WILMINGTON, OH
100 PM EST TUE JAN 16 2018

NOTE: "FAIR" INDICATES FEW OR NO CLOUDS BELOW 12,000 FEET WITH NO
SIGNIFICANT WEATHER AND/OR OBSTRUCTIONS TO VISIBILITY.

OHZ001>008-015>018-024>027-034-035-043-044-161900-
   NORTHWEST OHIO

CITY           SKY/WX    TMP DP  RH WIND       PRES   REMARKS
DEFIANCE       FAIR       4  -4  69 SW10      30.45F WCI -11
FINDLAY        FAIR       5  -3  69 W15       30.43F WCI -13
TOLEDO EXPRESS FLURRIES   5  -1  76 SW13      30.43F WCI -12
TOLEDO EXEC    CLOUDY     6  -1  73 SW15      30.44F HAZE    WCI -12
LIMA           CLOUDY     4  -2  76 SW14      30.42F WCI -14
$$

OHZ009>014-019>023-028>033-038-089-161900-
   NORTHEAST OHIO

CITY           SKY/WX    TMP DP  RH WIND       PRES   REMARKS
CLE-HOPKINS    CLOUDY    11   3  70 SW13      30.42F WCI  -4
CLE-LAKEFRONT  CLOUDY    12   2  64 SW10      30.40F WCI  -1
CUY CO. ARPT   PTSUNNY   12   3  67 SW9       30.38F WCI   0
LORAIN-ELYRIA  CLOUDY    10   0  63 W13       30.40F WCI  -5
ASHTABULA      CLOUDY    17  13  84 CALM      30.35F
AKRON-CANTON   PTSUNNY    8   0  69 W7        30.37F WCI  -3
WOOSTER        PTSUNNY   10   2  69 W7        30.38F WCI  -1
MANSFIELD      FAIR       8   1  73 SW10      30.37F WCI  -6
YOUNGSTOWN     CLOUDY    18  11  74 S10       30.33F WCI   6
$$

OHZ042-051>053-060>062-070>072-077>081-161900-
  SOUTHWEST OHIO

CITY           SKY/WX    TMP DP  RH WIND       PRES   REMARKS
CINC-COVINGTON FAIR       8   0  69 W10       30.48F WCI  -6
CINC-LUNKEN    FAIR      10   0  63 W7        30.54F WCI  -1
HAMILTON       FAIR      10  -1  61 W8        30.52F WCI  -2
DAYTON         FAIR       5  -1  76 SW13      30.46F WCI -12
WRIGHT-PAT AFB SUNNY      9  -4  57 SW9       30.46F WCI  -5
DAYTON GENERAL FAIR       7  -2  66 SW10      30.46F WCI  -8
WILMINGTON     FAIR       6  -1  73 W9        30.44F WCI  -8
$$

OHZ036-037-039>041-045>050-054>059-063>069-073>076-082>088-161900-
  CENTRAL AND SOUTHEAST OHIO

CITY           SKY/WX    TMP DP  RH WIND       PRES   REMARKS
COLUMBUS       FAIR       9   0  67 W10       30.45F WCI  -5
OSU AIRPORT    FAIR       7   0  73 SW9       30.44F WCI  -7
BOLTON FIELD   SUNNY      7  -2  66 W8        30.46F WCI  -6
RICKENBACK AFB FAIR       8   1  73 W9        30.47F WCI  -6
NEWARK         FAIR       9   1  70 W7        30.43F WCI  -2
MARION         FAIR       6  -1  73 SW7       30.42F WCI  -6
LANCASTER      PTSUNNY    8   1  73 W10       30.45F WCI  -6
ZANESVILLE     LGT SNOW  14   7  73 W10       30.41F VSB 1   WCI   1
NEW PHILLY     LGT SNOW  13   7  77 W5        30.41F WCI   5
$$



USA.gov is the U.S. government's official web portal to all federal, state and local government web resources and services.